Weather History for St. Joseph, MO

Change the Weather History Date:

Wednesday, February 27, 2013

  Actual Average Record
Temperature  
Mean Temperature 32 °F 36 °F  
Max Temperature 35 °F 47 °F 73 °F (1932)
Min Temperature 28 °F 25 °F -10 °F (1934)
Degree Days  
Heating Degree Days 33 29  
Month to date heating degree days 908 895  
Since 1 July heating degree days 4069 4278  
Cooling Degree Days 0 0  
Month to date cooling degree days 0 0  
Year to date cooling degree days 0 0  
Moisture  
Dew Point 25 °F    
Average Humidity 75    
Maximum Humidity 85    
Minimum Humidity 64    
Precipitation  
Precipitation T in 0.04 in 0.80 in (1918)
Month to date precipitation 0.37 0.89  
Year to date precipitation 1.01 1.45  
Sea Level Pressure  
Sea Level Pressure 29.93 in    
Wind  
Wind Speed 18 mph (NW)    
Max Wind Speed 28 mph    
Max Gust Speed 35 mph    
Visibility 4 miles    
Events Snow    
T = Trace of Precipitation, MM = Missing Value Source: NWS Daily Summary

Daily Weather History Graph

Daily Weather History Graph

Search for Another Location

Airport:

Trip Planner

Search our weather history database for the weather conditions in past years. The results will help you decide how hot, cold, wet, or windy it might be!

Date:

Astronomy

Feb. 27, 2013 Rise Set
Actual Time 6:55 AM CST 6:09 PM CST
Civil Twilight 6:28 AM CST 6:36 PM CST
Nautical Twilight 5:56 AM CST 7:08 PM CST
Astronomical Twilight 5:25 AM CST 7:39 PM CST
Moon 8:31 PM CST (2/27) 7:31 AM CST (2/27)
Length of Visible Light 12h 08m
Length of Day
11h 14m
Waning Gibbous, 96% of the Moon is Illuminated
Feb 27
Waning Gibbous
Mar 4
Last Quarter
Mar 11
New
Mar 19
First Quarter
Mar 27
Full

Hourly Weather History & Observations

Time (CST) Temp. Windchill Dew Point Humidity Pressure Visibility Wind Dir Wind Speed Gust Speed Precip Events Conditions
12:11 AM 30.2 °F 20.8 °F 26.6 °F 86% 29.86 in 1.5 mi NW 11.5 mph - 0.00 in Snow Light Snow
12:22 AM 30.2 °F 20.2 °F 26.6 °F 86% 29.86 in 1.5 mi NW 12.7 mph - 0.00 in Snow Light Snow
12:53 AM 30.0 °F 19.5 °F 27.0 °F 88% 29.89 in 1.2 mi NW 13.8 mph - 0.00 in Snow Light Snow
1:50 AM 30.2 °F 19.8 °F 26.6 °F 86% 29.86 in 2.0 mi NW 13.8 mph - 0.00 in Snow Light Snow
1:53 AM 30.0 °F 19.5 °F 27.0 °F 88% 29.88 in 2.0 mi NW 13.8 mph - 0.00 in Snow Light Snow
2:14 AM 30.2 °F 20.2 °F 26.6 °F 86% 29.86 in 1.5 mi NW 12.7 mph - 0.00 in Snow Light Snow
2:36 AM 30.2 °F 19.8 °F 26.6 °F 86% 29.85 in 2.0 mi NNW 13.8 mph - 0.00 in Snow Light Snow
2:53 AM 30.9 °F 20.2 °F 27.0 °F 85% 29.86 in 2.5 mi NNW 15.0 mph - 0.00 in Snow Light Snow
3:19 AM 30.2 °F 19.8 °F 26.6 °F 86% 29.84 in 4.0 mi NNW 13.8 mph - 0.00 in   Overcast
3:50 AM 30.2 °F 19.3 °F 26.6 °F 86% 29.85 in 5.0 mi NNW 15.0 mph - 0.00 in   Overcast
3:53 AM 30.0 °F 18.7 °F 26.1 °F 85% 29.87 in 5.0 mi NNW 16.1 mph - 0.00 in   Overcast
4:19 AM 30.2 °F 18.9 °F 24.8 °F 80% 29.84 in 4.0 mi NNW 16.1 mph - N/A   Haze
4:53 AM 30.0 °F 19.1 °F 25.0 °F 82% 29.88 in 5.0 mi NNW 15.0 mph - N/A   Haze
5:53 AM 28.9 °F 17.3 °F 24.1 °F 82% 29.91 in 5.0 mi NW 16.1 mph - N/A   Haze
6:20 AM 28.4 °F 17.5 °F 24.8 °F 86% 29.89 in 2.5 mi NW 13.8 mph - 0.00 in Snow Light Snow
6:31 AM 28.4 °F 16.6 °F 24.8 °F 86% 29.90 in 1.5 mi NW 16.1 mph - 0.00 in Snow Light Snow
6:53 AM 28.0 °F 17.0 °F 24.1 °F 85% 29.92 in 1.0 mi NW 13.8 mph - 0.00 in Snow Light Snow
7:34 AM 28.4 °F 15.8 °F 24.8 °F 86% 29.91 in 0.8 mi NW 18.4 mph - 0.00 in Snow Light Snow
7:53 AM 28.0 °F 15.3 °F 24.1 °F 85% 29.94 in 0.8 mi NW 18.4 mph - 0.00 in Snow Light Snow
8:09 AM 28.4 °F 15.8 °F 24.8 °F 86% 29.91 in 1.0 mi NW 18.4 mph - 0.00 in Snow Light Snow
8:20 AM 28.4 °F 15.8 °F 24.8 °F 86% 29.92 in 0.8 mi NW 18.4 mph 24.2 mph 0.00 in Snow Light Snow
8:43 AM 28.4 °F 17.0 °F 24.8 °F 86% 29.92 in 1.0 mi NW 15.0 mph 24.2 mph 0.00 in Snow Light Snow
8:53 AM 28.0 °F 17.0 °F 25.0 °F 88% 29.94 in 1.0 mi NW 13.8 mph - 0.00 in Snow Light Snow
9:06 AM 28.4 °F 16.6 °F 24.8 °F 86% 29.92 in 1.0 mi WNW 16.1 mph - 0.00 in Snow Light Snow
9:17 AM 28.4 °F 18.5 °F 24.8 °F 86% 29.92 in 0.8 mi WNW 11.5 mph - 0.00 in Snow Light Snow
9:33 AM 28.4 °F 16.6 °F 24.8 °F 86% 29.92 in 1.0 mi NW 16.1 mph - 0.00 in Snow Light Snow
9:53 AM 28.9 °F 16.9 °F 24.1 °F 82% 29.95 in 1.0 mi NW 17.3 mph - 0.00 in Snow Light Snow
10:21 AM 28.4 °F 15.4 °F 24.8 °F 86% 29.93 in 1.0 mi NW 19.6 mph - 0.00 in Snow Light Snow
10:44 AM 28.4 °F 15.4 °F 24.8 °F 86% 29.93 in 0.8 mi NW 19.6 mph 27.6 mph 0.00 in Snow Light Snow
10:53 AM 28.9 °F 16.5 °F 24.1 °F 82% 29.96 in 1.0 mi NW 18.4 mph 29.9 mph 0.00 in Snow Light Snow
11:53 AM 28.9 °F 16.5 °F 24.1 °F 82% 29.97 in 1.2 mi NW 18.4 mph - 0.00 in Snow Light Snow
12:22 PM 30.2 °F 18.9 °F 24.8 °F 80% 29.95 in 2.0 mi NW 16.1 mph - 0.00 in Snow Light Snow
12:41 PM 30.2 °F 19.8 °F 24.8 °F 80% 29.95 in 3.0 mi NW 13.8 mph - 0.00 in Snow Light Snow
12:53 PM 30.0 °F 18.7 °F 24.1 °F 79% 29.97 in 3.0 mi NW 16.1 mph - 0.00 in Snow Light Snow
1:53 PM 30.9 °F 18.4 °F 23.0 °F 72% 29.98 in 5.0 mi NNW 20.7 mph - 0.00 in   Haze
2:53 PM 33.1 °F 20.1 °F 23.0 °F 66% 29.98 in 8.0 mi NNW 25.3 mph 31.1 mph N/A   Mostly Cloudy
3:00 PM 33.8 °F 21.3 °F 23.0 °F 65% 29.96 in 7.0 mi NNW 24.2 mph 31.1 mph N/A   Scattered Clouds
3:53 PM 34.0 °F 23.8 °F 24.1 °F 67% 29.99 in 10.0 mi NNW 16.1 mph - N/A   Scattered Clouds
4:53 PM 35.1 °F 24.8 °F 24.1 °F 64% 30.00 in 10.0 mi NNW 17.3 mph 23.0 mph N/A   Mostly Cloudy
5:53 PM 35.1 °F 25.9 °F 24.1 °F 64% 30.01 in 10.0 mi NNW 13.8 mph - N/A   Partly Cloudy
6:53 PM 35.1 °F 24.5 °F 24.1 °F 64% 30.02 in 10.0 mi NW 18.4 mph - N/A   Overcast
8:53 PM 33.1 °F 21.2 °F 24.1 °F 70% 30.05 in 10.0 mi NW 20.7 mph - N/A   Overcast
9:53 PM 32.0 °F 18.9 °F 24.1 °F 73% 30.06 in 10.0 mi NNW 24.2 mph 34.5 mph N/A   Mostly Cloudy
10:53 PM 32.0 °F 21.6 °F 24.1 °F 73% 30.08 in 10.0 mi NNW 15.0 mph - N/A   Scattered Clouds
11:10 PM 33.8 °F 23.5 °F 24.8 °F 70% 30.05 in 10.0 mi NNW 16.1 mph - N/A   Overcast
11:53 PM 32.0 °F 20.5 °F 25.0 °F 75% 30.08 in 9.0 mi NNW 18.4 mph - N/A   Overcast